Simultaneous Nadir Overpasses (SNOs) Predictions

Prediction of SNOs between GOES-15 and NOAA-20 Satellite Orbit:

Table of predicted SNOs for the next 14.0 days since TLE Epoch: 7/18/2025
Index Date Time (GOES-15) GOES-15 Lat,Lon NOAA-20 Lat,Lon Distance(km) Time Diff (sec)
1 07/19/2025 09:11:04 0.34, 61.28 0.86, 63.46 249.51 80
2 07/20/2025 21:30:12 -0.38, 61.36 0.35, 58.20 360.96 80
3 07/21/2025 21:14:07 -0.37, 61.37 -0.66, 62.73 154.45 80
4 07/23/2025 09:33:24 0.40, 61.32 -0.49, 57.42 445.04 80
5 07/24/2025 09:17:20 0.39, 61.33 0.53, 61.95 70.55 80
6 07/26/2025 21:17:43 -0.40, 61.43 -0.34, 61.22 24.05 80
7 07/27/2025 21:01:38 -0.39, 61.44 -1.36, 65.75 491.49 80
8 07/29/2025 09:20:56 0.42, 61.39 0.21, 60.44 107.93 80
9 07/30/2025 09:04:51 0.41, 61.40 1.23, 64.97 407.68 80
10 07/31/2025 21:23:58 -0.43, 61.48 -0.03, 59.71 202.34 80
